Location: Bush Observatory
(40.2653°N, 94.3194°W)
Time: 19:12:41
(UTC-05:00)

Daily predictions for brighter satellites

Satellite Brightness Start Highest point End
(mag) Time Altitude Azimuth Time Altitude Azimuth Time Altitude Azimuth
Cosmos 2341 Rocket 4.2 18:50:26 10° S 18:56:41 83° W 19:03:02 10° N
USA 267 4.4 18:52:11 10° ENE 18:57:05 22° ESE 19:01:57 10° S
Atlas Centaur 2 3.4 18:54:17 10° SW 18:58:10 25° SSE 19:02:52 10° ESE
DELTA 2 R/B (1) 3.7 18:54:13 10° W 18:59:48 82° S 19:05:25 10° E
Meteor 1-16 Rocket 4.0 19:00:07 10° S 19:05:22 70° E 19:10:41 10° NNE
BREEZE M DEB (TANK) 4.2 19:01:09 10° WNW 19:07:15 26° NNW 19:09:58 10° NE
Cosmos 1484 Rocket 3.6 19:04:30 10° S 19:08:10 54° W 19:11:50 10° NNW
YAOGAN 1 2.5 19:04:24 10° SSE 19:08:43 81° ENE 19:13:04 10° N
ALOS 2.9 19:06:07 10° SE 19:10:15 33° ENE 19:14:26 10° N
Meteor 2-15 4.5 19:05:05 10° N 19:11:12 89° E 19:17:19 10° S
GP-B 3.2 19:10:01 10° N 19:14:23 56° E 19:18:44 10° SSE
FENGYUN 3A 4.1 19:10:00 10° SE 19:14:57 39° ENE 19:19:56 10° N
Abrixas rocket 3.0 19:12:07 10° W 19:15:17 45° NNW 19:18:29 10° NE
Cosmos 1703 3.9 19:12:27 10° NNE 19:16:03 33° ENE 19:19:36 10° SE
CZ-4 R/B 2.3 19:11:59 10° S 19:16:08 56° W 19:20:16 10° NNW
SL-08 R/B 4.5 19:11:29 10° S 19:17:35 63° E 19:23:37 10° NNE
MOS 1 4.3 19:12:50 10° SSE 19:18:28 75° ENE 19:24:10 10° N
Meteor 2-14 Rocket 4.5 19:14:38 10° S 19:20:44 89° E 19:26:51 10° N
Meteor 2-16 Rocket 4.4 19:17:08 10° S 19:23:13 80° E 19:29:21 10° N
Cosmos 1400 Rocket 2.9 19:21:20 10° N 19:25:20 53° ENE 19:29:14 10° SSE
Cosmos-2242 3.8 19:21:21 10° SSW 19:25:32 55° W 19:29:44 10° N
Tiangong 1 2.1 19:24:45 10° W 19:27:17 34° SSW 19:29:45 10° SE
Cosmos 2219 Rocket 3.9 19:24:57 10° NNE 19:27:39 13° NE 19:29:16 12° ENE
Cosmos 1624 Rocket 4.1 19:24:44 10° NNW 19:29:58 82° WSW 19:35:12 10° SSE
ERS-2 4.1 19:28:28 10° SSW 19:31:50 34° W 19:35:14 10° NNW
SKYMED 2 3.6 19:27:49 10° N 19:32:12 84° WNW 19:36:31 10° SSW
Thor Agena Rocket 4.0 19:27:59 10° NNE 19:32:43 37° E 19:37:23 10° SSE
GRACE-2 3.9 19:32:57 10° SSE 19:35:25 44° E 19:37:55 10° NNE
GRACE-1 3.8 19:34:44 10° SSE 19:37:16 49° E 19:39:47 10° N
SL-16 R/B 2.7 19:31:53 10° NNW 19:37:31 65° WSW 19:43:06 10° S
Cosmos 1908 3.7 19:34:31 10° SSE 19:38:08 36° E 19:41:46 10° NNE
Cosmos 1743 Rocket 3.5 19:34:42 10° N 19:39:05 86° E 19:43:29 10° S
Iridium 4 Rocket 4.1 19:35:36 10° SSE 19:40:35 40° E 19:45:55 10° NNE
Cosmos 2151 2.9 19:37:47 10° N 19:42:05 71° E 19:46:19 10° SSE
Cosmos 1842 Rocket 3.6 19:41:13 10° S 19:45:42 87° W 19:50:11 10° N
H-2A R/B 3.4 19:43:00 13° SE 19:46:03 35° ENE 19:49:36 10° N
Delta 2 Rocket 4.1 19:43:19 10° SW 19:46:28 28° SSE 19:47:45 22° SE
Cosmos 44 4.3 19:44:51 10° SSE 19:47:53 21° ESE 19:47:53 21° ESE
Resurs 01 Rocket 3.4 19:49:59 15° NE 19:49:59 15° NE 19:51:35 10° NNE
GENESIS II 4.4 19:45:41 10° SSW 19:49:30 49° ESE 19:51:47 22° NE
Cosmos 2237 Rocket 4.1 19:53:15 10° NNE 19:55:40 13° NE 19:55:40 13° NE
FREGAT/IRIS 2.7 19:56:03 45° ESE 19:56:27 49° ENE 19:59:21 10° N
ISS -1.2 19:54:13 10° W 19:56:39 19° SW 19:59:04 10° S
Cosmos 2221 2.6 19:53:02 10° S 19:57:13 53° E 20:01:27 10° NNE
Cosmos 44 Rocket 4.0 19:54:40 10° S 19:58:41 28° ESE 19:58:42 28° ESE
Cosmos 1500 Rocket 3.8 19:57:08 10° NNW 20:01:28 70° W 20:05:46 10° S
Cosmos 1315 Rocket 2.7 20:02:12 10° N 20:06:18 82° E 20:10:23 10° S
Geosat FO 4.5 20:06:01 40° SE 20:07:07 66° ENE 20:10:44 10° NNW
Cosmos 158 Rocket 3.9 20:03:07 10° S 20:07:59 56° ESE 20:13:01 10° NNE
Cosmos 921 Rocket 2.9 20:04:27 10° NNW 20:08:56 72° ENE 20:11:50 21° SSE
HJ-1C 4.3 20:10:02 35° NNE 20:10:02 35° NNE 20:12:22 10° N
BREEZE-M DEB (TANK) 2.7 20:07:40 10° W 20:09:26 27° SW 20:09:32 27° SSW
Cosmos 1269 Rocket 4.2 20:09:31 10° S 20:14:31 46° ESE 20:16:59 27° NE
COSMOS 2428 3.0 20:09:23 10° NNW 20:14:51 46° ENE 20:16:20 38° E
BREEZE-M DEB (TANK) 3.7 20:13:40 10° WNW 20:15:07 21° NNW 20:15:07 21° NNW
Cosmos 2058 4.1 20:12:22 10° NNW 20:16:22 44° W 20:20:19 10° SSW
Cosmos 2333 Rocket 3.2 20:13:29 10° N 20:18:02 27° NE 20:18:02 27° NE
Cosmos 2098 Rocket 3.0 20:17:02 10° S 20:21:02 70° E 20:26:11 10° NNE
RESURS DK-1 2.4 20:17:15 10° NNW 20:21:23 76° WSW 20:23:04 34° SSE
Cosmos 2360 Rocket 2.4 20:16:09 10° NNW 20:21:48 70° WSW 20:27:24 10° SSE
FengYun 1-2 T 4.1 20:17:33 10° SSE 20:23:04 88° WSW 20:28:35 10° NNW
Cosmos 2219 3.3 20:20:18 10° S 20:25:51 53° ESE 20:27:40 38° NE
Cosmos 468 4.5 20:20:46 10° SSW 20:25:58 84° WNW 20:31:15 10° NNE
MOS 1-B Rocket 3.9 20:25:31 42° ESE 20:26:53 52° ENE 20:32:37 10° N
Cosmos 2322 Rocket 4.4 20:23:08 10° NW 20:27:34 24° WSW 20:31:58 10° SSW
SL-24 R/B - RUBIN 2 3.7 20:24:46 10° NW 20:29:36 76° WSW 20:30:52 46° SSE
SJ-6B 2.6 20:30:52 79° SW 20:30:58 81° WSW 20:34:43 10° NNW
Lacrosse 5 rocket 4.2 20:30:26 10° NNW 20:31:16 10° NNW 20:32:05 10° N
SL-8 R/B 3.9 20:28:37 10° WSW 20:33:26 68° NNW 20:34:26 52° NNE
Cosmos 1452 Rocket 4.1 20:30:12 10° NNW 20:35:20 56° WSW 20:40:27 10° S
Cosmos 1821 Rocket 3.9 20:29:42 10° S 20:35:49 89° W 20:42:06 10° N
BREEZE-M DEB (TANK) 4.5 20:31:23 10° WNW 20:36:39 89° NNE 20:47:49 27° SE
Sich 1 4.3 20:32:50 10° N 20:35:07 29° NNE 20:35:07 29° NNE
Cosmos 1805 Rocket 3.5 20:35:13 10° N 20:39:36 85° W 20:39:44 83° SW
USA 267 3.1 20:37:01 30° NE 20:40:35 89° SE 20:47:08 10° SW
Cosmos 1934 Rocket 3.9 20:38:46 10° S 20:45:07 82° E 20:51:31 10° N
DELTA 2 R/B (1) 3.5 20:40:39 10° W 20:46:14 73° SSW 20:46:42 69° SSE
Atlas Centaur 2 3.4 20:41:53 10° WSW 20:46:35 30° S 20:47:12 29° S
Cosmos 2322 4.4 20:41:46 10° NNW 20:47:20 54° WSW 20:51:21 19° S
Spot 2 Rocket 4.3 20:51:35 39° NNE 20:51:35 39° NNE 20:54:53 10° N
Gbstr 26 Del rocket 4.1 20:47:58 10° NW 20:53:04 49° NNE 20:53:04 49° NNE
CZ-4C R/B 2.3 20:53:27 10° SSW 20:57:35 60° SSW 20:57:35 60° SSW
Cosmos 2123 Rocket 3.9 20:58:15 10° N 21:04:31 86° W 21:05:32 65° S
BREEZE-M DEB (TANK) 3.6 20:58:50 10° WNW 21:11:54 70° N 21:11:54 70° N
Cosmos 2219 Rocket 2.7 21:06:52 10° NNW 21:11:02 51° NNW 21:11:02 51° NNW
USA 234 3.7 21:15:23 47° NNE 21:15:23 47° NNE 21:21:09 10° NW
Envisat 4.3 21:26:29 35° NW 21:26:29 35° NW 21:29:31 10° NNW
Resurs 01 Rocket 3.8 21:27:35 21° NW 21:27:35 21° NW 21:29:11 10° NNW
Centaur D AC-28 4.4 21:29:00 10° SW 22:06:22 - E 21:30:48 22° SSW
Cosmos 2237 Rocket 3.9 21:35:04 10° NNW 21:37:31 27° NNW 21:37:31 27° NNW
Cosmos 2333 Rocket 4.0 21:57:19 10° NW 22:00:03 27° NW 22:00:03 27° NW
CZ-3A R/B 4.4 22:16:27 10° NW 22:27:05 54° NW 22:27:05 54° NW
